SAUDISAT 4

Satellite information

Favourite Embed

Satellite Type and Status

PAYLOADIN ORBIT

Key statistics

Satellite SAUDISAT 4 at a glance.

Uptime

4147

Days in orbit

Revolutions

≈ 14.8

Per day

Orbit

SSO

Sun Synchronous Orbit

Inclination

97.7

Latest

Satellite identification and parameters

Extended collection of information and parameters for SAUDISAT 4.

Object identification

Identified? True

Debris? False

Object name: SAUDISAT 4

International designator: 2014-033G

Object number (NORAD): 40016

Object ID (CCSDS): 40016

Country: SAUDI ARABIA (SAUD)

Current information (Y/N): Y

RCS size: MEDIUM

Orbital parameters

Period: 97.361 minutes

Inclination: 97.7267 deg

SMA: 7010.499 km

Apoapsis: 664.942 km

Periapsis: 599.786 km

RAAN: 88.7433 deg

Eccentricy: 0.00464705

Argument of periapsis: 115.1016 deg

Mean anomaly: 245.5029 deg

Mean motion: 14.7903808 rev/day

Mean motion (dot): 0.00001435 rev/day2

B* drag term: 0.00019747663 1/REarth

Two-line elements (TLE)

Creation date: Oct. 26, 2025, 2:54 a.m.

Reference frame: TEME

Reference center: EARTH

Epoch: Oct. 25, 2025, 10:48 p.m. UTC

TLE line 0: 0 SAUDISAT 4

TLE line 1: 1 40016U 14033G 25298.95012148 .00001435 00000-0 19748-3 0 9993

TLE line 2: 2 40016 97.7267 88.7433 0046470 115.1016 245.5029 14.79038080611443

Live tracking on map

Real-time ground track for satellite SAUDISAT 4.

In-orbit conjunctions

There are no conjunctions computed for SAUDISAT 4, at the moment. Check back to stay up to date, as we update our databases every day.

Go to all conjunctions

Associated space launch

SAUDISAT 4 was lifted into orbit during the mission ‘Dnepr 1 | Multipayload, 37 satellites.’, on board a Dnepr space rocket.

The launch took place on June 19, 2014, 7:11 p.m. from 370/13.

For more information about the launch, click the button.

Launch to space Dnepr 1 | Multipayload, 37 satellites.
Dnepr 1 | Multipayload, 37 satellites.

Agency: N/A

Status: Launch Successful

Launch date: June 19, 2014, 7:11 p.m. UTC

Rocket: Dnepr

Launch pad: 370/13

Location: Dombarovskiy, Russian Federation

...

Latest news about this satellite

There are no fresh news available about this satellite. Check back as we update our databases every day.


Newsletter sign-up

Weekly statistics, charts and insights to help you stay on top of the space industry.